Regional Weather Roundup
Issued by NWS

Home | Current Version | Previous Version | Text Only | Print | Product List | Glossary On
Versions: 1 2 3 4 5 6 7 8 9 10 11 12 13 14 15 16 17 18 19 20 21 22 23 24 25 26 27 28 29 30 31 32 33 34 35 36 37 38 39 40 41 42 43 44 45 46 47 48 49 50
000
ASUS43 KTOP 210759
RWRKS

WEATHER ROUNDUP FOR KANSAS
NATIONAL WEATHER SERVICE GOODLAND KS
300 AM CDT SAT APR 21 2018

NOTE:  "FAIR" INDICATES FEW OR NO CLOUDS BELOW 12,000 FEET WITH NO
SIGNIFICANT WEATHER AND/OR OBSTRUCTIONS TO VISIBILITY.

KSZ001>006-013>018-027>032-041>047-210900-
NORTHWEST KANSAS

CITY           SKY/WX    TMP DP  RH WIND       PRES   REMARKS
GOODLAND       LGT RAIN  40  38  93 SE17G28   30.12F WCI  31
HAYS           LGT RAIN  43  42  97 E15       30.17F
HILL CITY      LGT RAIN  43  42  97 E14       30.20F
RUSSELL        RAIN      44  44 100 NE9       30.18S FOG
$$

KSZ061>065-074>080-084>089-210900-
SOUTHWEST KANSAS

CITY           SKY/WX    TMP DP  RH WIND       PRES   REMARKS
DODGE CITY     CLOUDY    43  40  89 E21G32    30.03F
GREAT BEND     LGT RAIN  45  42  89 E7        30.16F
LIBERAL        CLOUDY    43  41  93 E21       30.02F
$$

KSZ066>073-081>083-090>101-210900-
SOUTHEAST KANSAS

CITY           SKY/WX    TMP DP  RH WIND       PRES   REMARKS
CHANUTE        CLOUDY    55  25  31 E12       30.19F
COFFEYVILLE    CLOUDY    53  33  46 E9        30.18F
HUTCHINSON     LGT RAIN  48  43  82 CALM      30.18R
MEDICINE LODGE   N/A     48  44  86 E12       30.12F
NEWTON         LGT RAIN  49  37  63 VRB7      30.19R
PARSONS        CLOUDY    54  29  38 VRB5      30.20F
WICHITA INTL   LGT RAIN  51  41  68 SE8       30.16R
WICHITA JABRA  LGT RAIN  51  37  58 E12       30.16R
WICHITA MCCONL LGT RAIN  51  38  61 SE9       30.16
WINFIELD       RAIN      50  44  80 E5        30.15F
$$

KSZ007>012-019>026-033>040-048>060-102>105-210900-
NORTHEAST KANSAS

CITY           SKY/WX    TMP DP  RH WIND       PRES   REMARKS
CONCORDIA      CLOUDY    48  35  60 E7        30.23F
EMPORIA        CLOUDY    52  29  41 E13       30.17F
LAWRENCE       CLOUDY    52  25  35 E7        30.25F
MANHATTAN      CLOUDY    54  26  34 NE10      30.21S
OLATHE IND     CLOUDY    52  25  35 E8        30.25F
OLATHE EXE     CLOUDY    50  25  37 E7        30.26S
SALINA         LGT RAIN  51  41  68 E5        30.21F
TOPEKA BILLARD CLOUDY    52  27  38 E6        30.25S
TOPEKA FORBES  CLOUDY    53  26  35 NE6       30.23F
$$




USA.gov is the U.S. government's official web portal to all federal, state and local government web resources and services.